Theta_e
321 321 321 320 319 317 317 316 317 320 321 321 321 321 321 322 321 315 306 315 316 340 338 329 329 332 335 330 333 331 320 315 315 314 316 321 321 327 332 330 330 331 333 336 343
321 321 321 320 319 317 317 316 316 319 320 320 320 320 320 322 315 309 321 335 340 343 326 320 319 325 322 321 328 323 319 316 321 321 319 321 322 324 324 327 328 332 337 341 342
320 320 320 320 319 317 316 316 318 320 320 320 320 320 320 322 310 309 337 338 341 341 320 322 324 321 314 320 322 322 317 321 321 323 324 323 322 325 322 320 326 328 335 339 339
319 319 319 319 317 317 316 316 317 319 320 319 319 319 321 318 307 317 342 339 342 326 320 318 317 314 314 314 320 318 323 323 323 325 323 322 323 321 322 325 331 330 337 339 338
318 318 318 318 317 316 316 316 317 318 319 319 319 320 320 309 311 328 345 341 332 321 317 315 315 314 312 314 320 319 322 323 324 325 323 323 321 320 323 333 336 335 337 338 338
317 318 317 317 317 316 315 315 316 317 318 319 319 321 314 306 316 333 335 326 318 316 315 316 314 317 315 314 316 318 320 321 323 322 320 318 320 322 323 334 333 334 334 336 338
317 317 317 317 316 315 315 314 314 316 318 319 320 321 313 311 322 334 324 317 319 317 314 317 317 317 316 312 318 317 316 317 317 319 317 320 316 318 324 332 331 332 333 335 336
317 316 316 316 316 315 315 314 313 314 319 320 321 321 307 315 321 321 319 316 317 318 318 322 321 318 315 318 315 312 313 310 314 316 317 318 309 320 324 328 328 329 331 332 335
316 316 316 316 315 315 314 314 317 317 320 322 317 316 308 319 316 319 318 316 316 317 319 321 319 316 317 313 311 311 306 307 310 315 315 315 311 320 325 325 326 329 330 331 334
316 315 315 315 314 314 314 315 320 321 322 322 320 311 315 314 318 316 317 320 319 318 317 316 317 314 314 312 304 306 306 308 308 312 314 312 313 320 324 324 324 327 329 330 330
316 315 314 315 315 313 312 316 312 311 315 309 307 309 312 318 320 317 317 317 318 316 312 313 311 308 311 313 311 310 308 307 311 313 312 312 313 317 320 321 323 326 327 326 324
316 315 314 314 314 312 311 305 311 309 307 307 310 311 313 315 310 315 319 315 313 310 312 311 308 313 313 313 310 309 307 308 310 313 313 312 312 316 319 317 318 322 321 322 322
314 314 314 314 313 310 309 307 310 315 306 306 309 309 312 314 311 312 317 314 312 309 310 308 311 312 312 312 310 310 307 307 307 310 313 311 309 313 317 320 320 322 323 323 323
313 313 313 312 312 315 313 316 319 315 306 307 309 312 313 314 310 315 318 316 312 310 309 310 312 310 311 309 311 306 312 309 307 306 302 310 300 308 313 315 316 321 325 323 324
313 313 312 310 312 314 314 320 312 314 297 309 309 316 311 310 311 311 317 316 310 310 311 308 309 308 307 309 311 307 311 309 308 306 304 305 303 308 311 311 315 323 324 324 326
312 312 311 310 311 315 318 316 315 305 297 307 309 308 307 308 309 310 312 316 313 309 310 310 312 311 311 312 311 312 309 308 305 304 298 304 303 303 308 312 315 323 323 324 328
312 311 310 315 311 317 317 314 303 299 307 305 306 307 306 306 307 308 308 309 306 303 304 307 307 309 311 308 310 309 306 299 297 297 297 303 301 305 311 313 316 322 323 325 328
310 309 311 314 317 317 314 310 297 301 304 310 309 307 305 311 310 310 309 305 308 306 305 303 301 309 312 309 308 307 306 300 293 295 298 303 300 307 314 317 319 324 325 326 326
308 315 319 320 318 317 313 301 299 303 308 306 307 305 305 310 311 309 309 308 310 310 306 304 303 312 313 313 312 308 305 306 302 303 299 302 305 311 314 315 318 321 323 323 325
309 316 318 319 319 315 309 298 303 307 309 307 303 305 302 306 307 308 307 312 312 315 315 309 303 310 313 314 313 311 312 304 305 295 293 299 300 304 310 313 317 318 320 323 326
313 316 322 316 315 312 302 301 304 309 310 305 305 304 304 304 306 305 306 312 316 316 316 313 309 308 311 310 309 309 307 306 306 303 297 295 300 311 312 314 316 319 322 324 325
313 313 324 315 309 304 303 304 303 307 309 308 309 308 306 306 306 306 307 312 317 317 312 314 312 306 308 311 313 311 309 309 302 300 302 301 301 310 315 315 318 319 321 323 324
315 316 328 316 303 305 311 309 307 308 308 308 308 310 312 309 309 310 312 317 317 316 312 314 309 302 303 308 311 308 309 309 306 306 302 299 302 313 314 315 318 318 320 322 323
318 315 319 314 312 315 313 313 312 314 309 313 312 314 314 311 313 312 311 315 317 317 316 316 309 306 300 304 307 305 306 308 306 303 303 303 305 310 313 314 315 318 321 322 323
312 314 313 311 314 316 315 313 310 310 315 314 314 312 312 310 310 310 312 313 316 316 315 314 307 306 308 308 307 306 307 308 306 307 302 305 306 311 312 315 316 318 320 320 321
304 306 309 309 311 314 309 311 311 314 314 310 313 313 314 312 311 308 312 313 312 314 313 313 307 308 305 307 307 304 307 308 308 307 308 308 307 313 311 313 315 317 319 320 321
304 306 311 307 315 315 317 316 315 319 316 316 316 315 313 315 318 318 318 318 316 312 310 310 309 305 301 305 305 301 307 308 305 305 305 302 305 308 306 307 309 312 314 317 318
Wind_Speed
13 12 11 10 9 8 7 7 8 8 7 7 7 7 8 9 7 1 6 4 4 12 7 7 3 3 1 2 2 3 1 1 1 2 3 1 3 3 1 6 4 7 3 3 16
13 13 12 11 10 9 8 7 6 7 7 7 6 6 6 8 1 7 8 6 11 14 8 6 4 2 1 1 1 1 1 1 2 1 1 1 3 4 5 5 5 4 2 8 17
15 13 12 11 11 9 8 7 8 7 6 5 5 5 5 5 2 4 5 12 13 12 3 4 7 2 1 1 3 3 3 1 3 7 6 4 4 5 7 9 8 13 11 13 17
16 15 13 12 11 10 9 8 8 8 7 6 5 5 6 3 10 1 6 14 16 7 8 6 5 2 2 2 3 4 9 8 5 1 2 4 1 5 9 5 5 7 11 17 18
15 16 15 14 12 11 10 9 8 8 7 6 5 5 2 2 5 2 9 11 13 7 7 5 4 3 3 2 4 6 7 4 7 11 7 5 4 4 3 6 4 3 9 12 12
16 15 15 14 13 12 11 9 8 7 7 6 5 4 2 3 3 4 10 13 8 10 6 6 3 3 4 3 5 2 8 9 6 5 0 3 1 2 2 1 3 4 4 6 9
17 17 16 15 14 12 11 11 9 8 7 5 5 3 1 2 4 7 13 7 6 9 5 4 2 3 0 3 3 4 5 2 2 2 2 2 3 2 6 3 4 4 4 5 7
18 17 16 16 15 13 12 12 10 8 6 4 4 3 6 3 5 6 5 5 6 3 4 2 5 3 4 2 0 1 2 3 3 4 2 3 4 1 1 0 2 2 2 3 6
19 17 17 17 16 14 13 13 6 4 3 5 3 3 2 5 4 5 7 7 8 5 3 1 1 1 3 1 1 2 2 2 4 2 1 2 2 2 0 3 4 3 4 5 6
20 19 17 16 16 14 13 3 5 5 2 3 3 3 3 1 3 5 3 8 4 5 3 2 1 3 1 4 3 4 6 4 5 1 2 2 2 1 4 5 3 4 4 5 5
21 20 18 16 13 12 5 3 3 3 2 4 1 2 3 5 2 3 4 7 3 2 4 2 5 6 9 5 3 3 6 8 7 3 4 4 4 7 5 6 7 7 5 5 3
22 20 19 17 14 4 3 3 2 3 3 4 4 6 5 3 1 3 6 4 3 3 2 2 7 9 4 6 5 7 8 11 6 3 5 5 9 7 7 5 5 6 4 3 4
23 21 18 16 8 2 2 2 1 2 1 2 4 4 3 7 3 4 9 4 3 5 7 6 7 2 6 9 10 11 10 11 10 1 3 3 6 6 6 6 6 6 4 5 5
24 21 18 17 2 0 3 3 4 4 1 3 3 4 5 4 4 4 7 3 3 6 5 7 3 8 8 10 11 13 17 13 10 8 10 2 9 5 7 9 7 7 5 8 7
25 22 18 6 2 3 3 6 4 3 2 2 4 2 2 6 2 3 2 2 8 7 5 13 7 6 8 17 6 15 8 8 7 7 4 6 6 2 1 10 12 8 5 7 9
27 24 14 3 2 3 5 1 2 2 2 3 4 5 6 2 1 2 3 3 3 3 5 17 2 5 15 12 9 8 8 5 2 3 7 6 6 7 6 11 9 6 5 8 10
29 25 3 1 1 5 4 2 1 3 1 2 3 5 4 5 5 3 4 5 5 4 7 3 6 4 5 8 3 3 3 6 8 7 10 2 5 9 7 6 7 10 8 8 8
32 16 5 3 2 6 2 2 2 1 2 1 2 6 5 2 0 2 3 6 2 2 3 4 5 2 3 3 2 2 3 6 14 12 14 2 6 3 3 2 2 7 8 8 8
25 1 2 2 3 4 2 2 3 4 1 3 3 4 3 3 3 3 1 2 1 5 3 3 5 1 3 1 3 4 4 3 3 1 5 3 4 9 2 4 3 8 9 9 7
6 4 3 3 3 1 3 2 3 3 2 1 1 1 3 2 2 1 1 1 1 4 1 1 6 1 1 2 6 2 6 4 3 7 10 3 4 8 3 8 9 10 10 10 8
2 0 2 1 2 3 3 4 4 5 5 2 1 2 3 2 1 1 1 1 0 1 1 3 4 5 2 6 8 4 3 2 2 3 6 8 4 2 9 8 11 11 12 12 12
4 0 3 2 2 1 2 3 2 5 1 3 1 2 4 3 2 2 1 2 3 1 3 3 3 6 11 2 3 2 4 5 6 5 3 4 6 1 8 6 9 12 12 11 11
5 3 2 3 2 1 2 3 3 2 2 4 6 4 1 3 2 2 1 2 3 1 1 1 1 6 7 4 3 2 1 2 2 2 9 8 7 2 2 1 6 11 12 11 11
3 2 2 4 1 1 2 1 4 3 3 2 2 3 4 3 1 4 1 3 3 3 4 3 2 8 12 14 4 9 6 5 6 6 11 11 18 6 6 7 6 9 11 13 12
4 3 2 3 2 3 2 2 2 1 1 0 3 2 4 3 2 3 1 1 4 3 2 1 5 3 10 10 8 10 12 9 10 13 9 13 11 13 9 8 12 10 9 11 12
4 4 4 3 4 3 0 1 2 3 3 1 4 4 3 4 2 2 2 2 1 2 2 3 2 4 9 4 4 7 6 6 6 11 9 11 11 11 11 5 6 11 10 11 13
3 1 3 2 3 2 2 4 1 6 1 1 6 4 3 2 4 5 6 6 3 1 2 1 3 3 3 8 9 3 9 7 10 11 8 6 9 9 9 7 7 6 4 8 7
Wind_Direction
5 3 5 7 6 358 345 334 334 330 329 333 343 346 344 340 318 175 234 202 174 163 130 130 115 70 55 49 53 172 198 351 155 213 20 131 182 141 166 157 181 192 276 34 149
4 2 360 0 3 357 345 333 319 315 325 330 337 341 340 340 293 247 249 148 141 165 135 147 130 148 125 95 138 233 298 242 257 250 15 326 311 172 203 202 204 214 98 118 149
1 360 357 356 357 353 344 332 320 317 319 321 328 332 327 312 233 234 216 165 170 181 102 107 131 173 260 199 168 150 244 206 299 263 266 281 243 219 242 230 222 219 188 157 169
358 355 353 353 349 345 342 332 322 316 315 317 319 317 314 231 167 262 150 171 172 172 143 136 139 187 263 248 176 253 243 241 290 132 254 255 218 225 231 294 323 261 184 169 182
350 350 349 349 347 340 335 327 320 314 309 307 306 305 233 204 254 161 165 164 159 162 187 168 185 182 296 264 176 234 287 254 281 277 277 275 268 309 42 16 8 94 161 182 185
347 345 345 344 343 340 331 322 315 306 297 296 290 290 224 200 96 164 154 162 176 173 187 180 225 213 276 254 225 278 278 283 285 262 100 304 324 324 47 38 66 88 141 167 189
346 346 343 343 340 335 331 319 313 306 289 280 264 254 227 202 124 137 144 164 170 183 164 215 196 228 21 234 258 298 308 344 22 340 20 327 249 346 357 25 51 70 115 161 188
344 344 341 341 341 335 329 319 301 281 273 254 234 225 248 131 133 157 192 120 150 182 232 175 179 246 230 344 188 4 68 3 1 340 28 228 22 44 344 195 85 96 143 183 198
341 340 338 340 341 335 331 318 290 219 208 162 188 245 256 138 211 188 179 160 155 208 253 125 233 303 216 214 152 8 344 294 310 26 299 294 312 4 28 186 187 194 193 197 218
338 338 335 335 338 333 325 293 104 139 156 206 253 246 220 132 148 136 185 155 150 141 122 174 206 235 128 238 293 295 294 264 274 197 113 288 230 257 227 223 190 202 216 231 236
336 335 334 330 328 325 315 172 188 148 204 225 125 285 297 318 229 160 165 138 124 145 193 99 227 233 249 224 320 265 267 272 276 274 259 258 208 205 215 251 239 225 230 226 216
332 332 332 328 329 324 203 203 121 71 310 236 251 280 257 294 265 161 165 170 174 161 152 167 238 243 222 224 248 263 289 270 284 208 237 227 255 192 207 231 222 207 209 219 172
330 331 331 329 335 182 238 219 101 0 229 280 193 225 226 178 228 211 182 149 178 168 189 232 252 65 224 240 256 266 253 278 291 189 244 256 259 204 203 220 206 232 226 198 185
329 331 332 328 240 115 226 125 309 214 312 155 221 240 164 170 228 207 197 157 167 254 179 258 304 235 235 259 254 273 276 268 275 291 291 290 294 260 217 203 209 203 211 180 157
329 331 329 304 323 207 79 329 137 203 109 125 152 119 139 202 109 160 163 185 225 206 197 252 242 202 229 241 238 266 300 280 288 271 272 225 253 270 282 238 210 174 148 140 141
329 331 333 129 222 289 316 276 216 247 120 116 134 164 159 207 244 116 141 79 49 194 242 265 279 246 254 277 240 269 267 268 136 234 253 287 257 285 231 238 206 147 137 136 132
331 327 280 192 67 333 303 192 224 218 345 63 167 169 181 182 207 205 181 176 216 233 257 286 250 283 255 271 156 173 237 282 274 251 283 38 241 278 310 286 248 164 154 144 138
330 322 187 240 270 340 197 109 224 159 263 341 99 122 186 155 165 171 162 216 172 179 225 278 290 207 161 256 333 174 235 289 293 291 297 131 249 294 7 23 6 152 148 152 147
322 350 234 315 217 181 144 160 230 202 289 333 142 147 134 178 198 185 167 159 105 216 251 232 255 304 31 153 293 140 243 45 277 197 265 284 272 262 250 203 170 165 163 162 158
325 320 4 8 151 215 95 236 249 228 312 323 131 229 146 103 129 39 5 74 67 36 256 247 273 216 127 184 68 296 123 237 238 275 284 233 273 280 269 226 200 178 184 173 164
304 322 32 332 237 58 167 237 271 255 239 227 154 123 130 140 125 150 131 56 49 266 205 205 237 257 255 215 255 169 205 132 292 262 282 294 262 225 295 299 212 191 183 179 178
325 217 23 279 59 23 173 202 289 280 145 253 221 174 185 146 140 151 183 241 168 284 273 43 276 252 264 50 10 294 280 227 245 213 231 295 268 285 289 294 206 183 180 181 183
346 298 6 289 135 108 285 272 258 264 211 179 193 205 162 131 158 175 202 90 106 77 329 89 231 289 263 219 121 279 245 223 94 164 238 264 264 43 359 101 204 179 176 179 194
311 320 354 53 32 58 348 278 277 254 250 159 147 160 118 97 70 190 223 82 72 72 57 212 229 261 283 297 282 274 250 217 221 266 280 256 284 277 259 231 197 193 193 192 195
4 47 21 354 85 0 232 296 306 324 303 306 109 109 135 140 187 212 213 162 77 4 68 351 270 270 286 288 269 267 274 290 248 271 265 294 273 309 307 302 217 199 204 203 206
2 356 350 291 294 303 277 61 331 343 323 49 148 114 122 156 201 246 206 206 2 72 54 29 292 313 295 334 338 281 317 301 320 352 263 287 293 354 330 329 190 192 181 205 218
5 310 290 315 334 271 20 345 319 334 107 9 126 112 103 49 31 63 81 82 90 80 105 346 312 326 284 323 303 173 358 19 61 27 337 25 10 348 26 17 84 96 169 230 245